FW2089 Weather Reports


time (UTC)temp
C
wind
direction
speed
KPH
gust
KPH
rain 1hr
cm
rain 24hr
cm
rain mn
cm
humidity
%
barometer
mb
20260505025005 13 0.0 0.0 0.00 0.00 0.00 63 1011.7
20260505024504 13 0.0 0.0 0.00 0.00 0.00 62 1011.7
20260505023947 13 0.0 0.0 0.00 0.00 0.00 62 1011.8
20260505023435 13 0.0 0.0 0.00 0.00 0.00 61 1011.8
20260505023151 13 0.0 0.0 0.00 0.00 0.00 61 1011.8
20260505022417 13 0.0 0.0 0.00 0.00 0.00 60 1011.8
20260505021904 13 0.0 0.0 0.00 0.00 0.00 60 1011.9
20260505021343 13 0.0 0.0 0.00 0.00 0.00 59 1012.0
20260505021028 13 0.0 0.0 0.00 0.00 0.00 58 1012.0
20260505020305 13 0.0 0.0 0.00 0.00 0.00 58 1011.9
20260505015801 13 0.0 0.0 0.00 0.00 0.00 57 1011.8
20260505015517 14 0.0 0.0 0.00 0.00 0.00 57 1011.8
20260505014743 14 0.0 0.0 0.00 0.00 0.00 56 1011.8
20260505014222 14 0.0 0.0 0.00 0.00 0.00 56 1011.8
20260505013705 14 0.0 0.0 0.00 0.00 0.00 55 1011.8
20260505013152 14 0.0 0.0 0.00 0.00 0.00 55 1011.7
20260505012629 15 0.0 0.0 0.00 0.00 0.00 54 1011.7
20260505012113 15 0.0 0.0 0.00 0.00 0.00 53 1011.6
20260505011613 15 0.0 0.0 0.00 0.00 0.00 53 1011.5
20260505011103 15 0.0 0.0 0.00 0.00 0.00 53 1011.4
20260505010559 15 0.0 0.0 0.00 0.00 0.00 53 1011.4
20260505010033 15 0.0 0.0 0.00 0.00 0.00 52 1011.3
20260505005525 15 0.0 0.0 0.00 0.00 0.00 52 1011.2
20260505005017 15 0.0 0.0 0.00 0.00 0.00 51 1011.1
20260505004509 15 0.0 0.0 0.00 0.00 0.00 50 1010.9
20260505003951 16 0.0 0.0 0.00 0.00 0.00 50 1010.8
20260505003449 16 0.0 0.0 0.00 0.00 0.00 49 1010.7
20260505002941 16 0.0 0.0 0.00 0.00 0.00 49 1010.6
20260505002423 16 0.0 0.0 0.00 0.00 0.00 48 1010.4
20260505001922 16 0.0 0.0 0.00 0.00 0.00 49 1010.3
20260505001422 16 0.0 0.0 0.00 0.00 0.00 48 1010.1
20260505000903 16 0.0 0.0 0.00 0.00 0.00 48 1010.0
20260505000406 16 0.0 0.0 0.00 0.00 0.00 48 1009.8
20260504235901 17 0.0 0.0 0.00 0.00 0.00 48 1009.8
20260504235401 17 133 1.6 3.2 0.00 0.00 0.00 47 1009.7
20260504234903 17 133 1.6 6.4 0.00 0.00 0.00 46 1009.6
20260504234339 17 144 1.6 16.1 0.00 0.00 0.00 47 1009.6
20260504233837 17 143 1.6 16.1 0.00 0.00 0.00 46 1009.5
20260504233322 17 3 1.6 8.0 0.00 0.00 0.00 46 1009.5
20260504232822 17 272 1.6 6.4 0.00 0.00 0.00 45 1009.4
20260504232322 18 262 1.6 6.4 0.00 0.00 0.00 44 1009.4
20260504231821 18 10 1.6 6.4 0.00 0.00 0.00 45 1009.3
20260504231322 18 185 0.0 4.8 0.00 0.00 0.00 44 1009.2
20260504230822 18 246 1.6 3.2 0.00 0.00 0.00 44 1009.1
20260504230321 18 134 1.6 6.4 0.00 0.00 0.00 44 1009.0
20260504225821 18 29 1.6 9.7 0.00 0.00 0.00 43 1009.0
20260504225321 19 29 1.6 9.7 0.00 0.00 0.00 43 1008.8
20260504224821 19 32 1.6 6.4 0.00 0.00 0.00 42 1008.7
20260504224321 19 78 1.6 8.0 0.00 0.00 0.00 41 1008.7
20260504223813 20 353 1.6 8.0 0.00 0.00 0.00 40 1008.6
20260504223801 20 318 1.6 8.0 0.00 0.00 0.00 39 1008.5
20260504223250 20 9 1.6 8.0 0.00 0.00 0.00 39 1008.5
20260504222305 20 128 1.6 8.0 0.00 0.00 0.00 40 1008.6
20260504221804 20 171 0.0 6.4 0.00 0.00 0.00 39 1008.5
20260504221301 20 32 1.6 8.0 0.00 0.00 0.00 38 1008.5
20260504220759 20 352 1.6 8.0 0.00 0.00 0.00 38 1008.4
20260504220257 21 121 1.6 6.4 0.00 0.00 0.00 37 1008.5
20260504215754 21 166 1.6 8.0 0.00 0.00 0.00 36 1008.4
20260504215250 21 51 1.6 8.0 0.00 0.00 0.00 36 1008.5
20260504214749 21 80 0.0 8.0 0.00 0.00 0.00 35 1008.4
20260504214517 22 21 0.0 8.0 0.00 0.00 0.00 34 1008.5
20260504213742 22 55 0.0 4.8 0.00 0.00 0.00 33 1008.5
20260504213234 22 109 0.0 4.8 0.00 0.00 0.00 32 1008.4
20260504212721 22 139 0.0 4.8 0.00 0.00 0.00 31 1008.4
20260504212221 22 185 1.6 6.4 0.00 0.00 0.00 33 1008.3
20260504211721 22 10 1.6 8.0 0.00 0.00 0.00 31 1008.3
20260504211222 22 85 1.6 8.0 0.00 0.00 0.00 31 1008.4
20260504210721 22 68 1.6 8.0 0.00 0.00 0.00 31 1008.4
20260504210221 23 326 1.6 9.7 0.00 0.00 0.00 30 1008.3
20260504205943 23 316 1.6 9.7 0.00 0.00 0.00 31 1008.3
20260504205221 23 209 1.6 4.8 0.00 0.00 0.00 31 1008.4
20260504204721 23 1 1.6 14.5 0.00 0.00 0.00 30 1008.3
20260504204221 23 348 3.2 14.5 0.00 0.00 0.00 31 1008.4
20260504203721 23 83 1.6 9.7 0.00 0.00 0.00 30 1008.4
20260504203221 22 57 1.6 8.0 0.00 0.00 0.00 31 1008.4
20260504202721 22 57 1.6 8.0 0.00 0.00 0.00 33 1008.4
20260504202221 22 20 1.6 6.4 0.00 0.00 0.00 31 1008.3
20260504201720 22 31 1.6 8.0 0.00 0.00 0.00 31 1008.4
20260504201221 22 255 1.6 8.0 0.00 0.00 0.00 30 1008.4
20260504200721 22 54 1.6 8.0 0.00 0.00 0.00 31 1008.4
20260504200221 22 83 1.6 8.0 0.00 0.00 0.00 32 1008.5
20260504195721 22 51 3.2 6.4 0.00 0.00 0.00 29 1008.7
20260504195221 22 13 3.2 6.4 0.00 0.00 0.00 29 1008.6
20260504194720 22 35 1.6 8.0 0.00 0.00 0.00 29 1008.6
20260504194216 22 10 1.6 11.3 0.00 0.00 0.00 31 1008.7
20260504193710 22 79 0.0 6.4 0.00 0.00 0.00 31 1008.6
20260504193207 22 58 1.6 6.4 0.00 0.00 0.00 32 1008.6
20260504192705 22 338 1.6 11.3 0.00 0.00 0.00 29 1008.5
20260504192207 22 349 1.6 11.3 0.00 0.00 0.00 31 1008.5
20260504191700 22 39 1.6 9.7 0.00 0.00 0.00 30 1008.4
20260504191158 22 327 1.6 9.7 0.00 0.00 0.00 30 1008.6
20260504190655 22 354 1.6 8.0 0.00 0.00 0.00 30 1008.7
20260504190156 22 344 1.6 9.7 0.00 0.00 0.00 29 1008.8
20260504185656 22 338 1.6 9.7 0.00 0.00 0.00 30 1008.8
20260504185156 22 342 1.6 6.4 0.00 0.00 0.00 30 1008.9
20260504184645 22 340 1.6 8.0 0.00 0.00 0.00 32 1008.6
20260504184146 22 324 1.6 9.7 0.00 0.00 0.00 30 1008.8
20260504183858 22 10 3.2 9.7 0.00 0.00 0.00 32 1009.0
20260504183138 22 347 3.2 11.3 0.00 0.00 0.00 29 1008.8
20260504182637 22 20 1.6 11.3 0.00 0.00 0.00 28 1008.8
20260504182136 22 315 3.2 8.0 0.00 0.00 0.00 30 1008.9
20260504181623 22 334 3.2 8.0 0.00 0.00 0.00 30 1008.9
20260504181123 22 65 1.6 6.4 0.00 0.00 0.00 32 1009.0
20260504180623 22 343 1.6 6.4 0.00 0.00 0.00 30 1009.1
20260504180123 22 79 1.6 8.0 0.00 0.00 0.00 31 1009.1
20260504175836 22 3 1.6 9.7 0.00 0.00 0.00 33 1009.0
20260504174607 22 332 1.6 9.7 0.00 0.00 0.00 31 1009.2
20260504174107 21 356 3.2 9.7 0.00 0.00 0.00 34 1009.2
20260504173604 21 330 3.2 9.7 0.00 0.00 0.00 32 1009.4
20260504173325 21 10 1.6 8.0 0.00 0.00 0.00 32 1009.4
20260504172603 21 14 3.2 6.4 0.00 0.00 0.00 30 1009.3
20260504172104 21 37 3.2 6.4 0.00 0.00 0.00 32 1009.3
20260504171838 21 336 1.6 6.4 0.00 0.00 0.00 32 1009.3
20260504171102 21 324 1.6 14.5 0.00 0.00 0.00 35 1009.3
20260504170604 21 42 3.2 14.5 0.00 0.00 0.00 32 1009.2
20260504170104 21 208 3.2 11.3 0.00 0.00 0.00 32 1009.3
20260504151025 18 347 3.2 9.7 0.00 0.00 0.00 39 1010.7
20260504150525 18 11 3.2 9.7 0.00 0.00 0.00 39 1010.6
20260504150236 17 2 3.2 11.3 0.00 0.00 0.00 42 1010.7
20260504150115 18 338 3.2 11.3 0.00 0.00 0.00 41 1010.8
20260504141242 16 270 1.6 8.0 0.00 0.05 0.00 49 1011.1
20260504140522 15 219 1.6 8.0 0.00 0.05 0.00 46 1011.3
20260504130522 12 60 0.0 4.8 0.00 0.05 0.00 57 1011.8
20260504110422 7 0.0 0.0 0.00 0.05 0.00 64 1012.0
20260504100301 7 0.0 0.0 0.00 0.05 0.00 61 1012.0
20260504081800 6 0.0 0.0 0.00 0.05 0.00 61 1011.7
20260504080811 6 0.0 0.0 0.00 0.05 0.00 61 1011.8
20260504080525 6 0.0 0.0 0.00 0.05 0.00 62 1011.8
20260504050603 3 0.0 0.0 0.00 0.05 0.00 77 1011.5
20260504045559 2 0.0 0.0 0.00 0.05 0.00 78 1011.6
20260504045048 2 0.0 0.0 0.00 0.05 0.00 78 1011.6
20260504044545 2 0.0 0.0 0.00 0.05 0.00 77 1011.6
20260504044003 2 0.0 0.0 0.00 0.05 0.00 77 1011.6
20260504043500 2 0.0 0.0 0.00 0.05 0.00 77 1011.6
20260504043440 2 0.0 0.0 0.00 0.05 0.00 77 1011.5
20260504042457 2 0.0 0.0 0.00 0.05 0.00 77 1011.5
20260504041951 2 0.0 0.0 0.00 0.05 0.00 77 1011.5
20260504041434 2 0.0 0.0 0.00 0.05 0.00 76 1011.4
20260504040921 2 0.0 0.0 0.00 0.05 0.00 76 1011.3
20260504040418 2 0.0 0.0 0.00 0.05 0.00 75 1011.3
20260504035858 2 0.0 0.0 0.00 0.05 0.05 75 1011.2
20260504035353 2 0.0 0.0 0.00 0.05 0.05 74 1011.2
20260504034833 2 0.0 0.0 0.00 0.05 0.05 74 1011.2
20260504034322 2 0.0 0.0 0.00 0.05 0.05 74 1011.1
20260504033823 2 0.0 0.0 0.00 0.05 0.05 73 1011.0
20260504033259 3 0.0 0.0 0.00 0.05 0.05 73 1011.0
20260504032749 3 0.0 0.0 0.00 0.05 0.05 73 1011.0
20260504032459 3 0.0 0.0 0.00 0.05 0.05 73 1011.0
20260504031733 3 0.0 0.0 0.00 0.05 0.05 73 1011.1
20260504031222 3 0.0 0.0 0.00 0.05 0.05 72 1011.0
20260504030722 3 0.0 0.0 0.00 0.05 0.05 72 1011.0
20260504030204 3 0.0 0.0 0.00 0.05 0.05 72 1011.0
20260504025927 3 0.0 0.0 0.00 0.05 0.05 71 1011.0
20260504025352 3 0.0 0.0 0.00 0.05 0.05 71 1011.0